ASTRA 3A (27400 NORAD) Tracking and Keplerian Element Data

This shows tracking and keplerian element data for the satellite.

Feedback or suggestion? Click here.




ElementValue
Catalog27400
NameASTRA 3A
Epoch Orbit7560
Epoch Day321.53334907
Epoch Year2022
RAAN58.1406
Inclination7.7133
Eccentricity0.0001978
Argument of Perigee264.0614
Mean Anonmoly197.3431
Mean Motion0.99774689
Decay Rate-1.07E-06
L11 27400U 02015B 22321.53334907 -.00000107 00000+0 00000+0 0 9992
L22 27400 7.7133 58.1406 0001978 264.0614 197.3431 0.99774689 75603



Live tracking and technical data element details for ASTRA 3A (NORAD 27400). ASTRA 3A can be tracked NOW for your location showing map with azimuth and elevation plus other details from your city location.







IsCatalogInMostPopularTable: catalog: 27400, numindb: 299
Update: records affected: 1



GetName: 27400 ASTRA 3A

Hit Count: updated at: Thu, 15 May 2025 19:13:54 GMT